Temperature
3 4 4 4 4 3 3 3 3 4 4 5 5 5 6 6 6 6 6 6 6 6 6 7 7 7 7 7 7 7 7 7 7 7 7 7 7 6 6 6 6 6 6 6
3 3 3 3 4 4 4 4 4 4 4 5 5 6 5 6 6 6 6 6 6 6 6 6 6 6 6 6 6 6 6 6 6 6 6 6 6 6 6 6 6 6 6 6
2 3 3 3 4 4 3 3 4 4 5 4 4 4 4 5 5 5 6 6 6 6 6 6 6 6 6 6 6 6 6 6 6 6 6 6 6 5 5 5 5 5 5 5
2 2 3 5 5 4 4 3 3 3 4 4 4 5 5 5 5 5 5 5 5 5 5 5 5 5 5 5 5 5 5 5 5 5 5 5 5 5 5 5 5 5 5 5
2 2 3 4 4 3 3 3 3 3 3 3 4 3 4 5 5 5 5 5 5 5 5 5 5 4 4 4 5 5 5 5 4 4 4 4 4 4 4 4 4 4 4 4
2 2 3 4 4 4 4 3 3 3 3 3 3 2 3 5 5 5 5 4 4 4 4 4 4 4 4 4 4 4 4 4 4 4 4 4 4 4 4 3 3 3 3 3
2 2 3 3 3 3 3 4 4 4 3 3 2 3 4 4 4 4 4 4 4 4 4 4 3 3 3 3 3 3 3 3 3 3 3 3 3 3 3 3 3 3 3 3
1 2 2 3 2 2 3 4 4 4 4 4 4 4 4 4 4 3 3 3 3 3 3 3 3 3 3 3 3 3 3 3 3 3 3 3 2 2 2 2 2 2 2 2
1 2 3 3 3 4 4 3 4 4 4 3 3 3 3 3 3 3 3 3 3 3 3 3 2 2 2 2 2 2 3 3 3 3 2 2 2 2 2 2 1 1 1 2
0 1 2 3 3 3 3 3 3 3 3 3 3 3 3 3 3 2 2 2 2 2 2 2 2 2 2 2 2 2 2 2 2 2 2 2 1 1 1 1 1 1 1 1
-0 0 1 2 2 3 2 2 2 2 2 2 2 2 2 2 2 2 2 2 2 1 1 2 1 2 2 1 1 2 2 2 2 2 2 1 1 1 1 1 0 0 0 0
0 1 0 1 2 2 2 2 2 1 1 1 1 1 1 1 1 1 1 1 1 1 1 1 1 1 1 1 1 1 1 1 1 1 1 1 0 0 0 0 0 0 0 0
1 1 1 1 1 1 1 1 1 1 1 1 1 1 1 1 0 0 0 0 0 0 0 0 0 0 0 0 0 0 0 0 0 0 -0 -0 -0 -0 -0 0 0 -0 -0 -0
1 1 0 1 1 1 1 1 1 0 0 0 0 0 0 0 -0 -0 -0 -0 -0 -0 -0 -0 -0 -0 -0 -0 -0 -0 -0 -0 -0 -1 -1 -1 -1 -1 -1 -1 -1 -0 -0 -0
0 0 0 0 0 0 0 0 -0 -0 -0 -0 -0 -0 -0 -1 -1 -1 -1 -1 -1 -1 -1 -1 -1 -1 -1 -1 -1 -1 -1 -1 -1 -1 -1 -1 -1 -1 -1 -1 -1 -1 -1 -1
-0 -0 -1 -1 -0 -0 -1 -1 -1 -1 -1 -1 -1 -1 -1 -1 -1 -1 -1 -1 -1 -1 -1 -1 -1 -1 -1 -2 -1 -1 -1 -1 -2 -2 -2 -2 -2 -2 -2 -2 -2 -2 -2 -2
-2 -2 -1 -1 -1 -1 -1 -1 -1 -1 -1 -1 -1 -1 -1 -2 -2 -2 -2 -2 -2 -2 -2 -2 -2 -2 -2 -2 -2 -2 -2 -2 -2 -2 -2 -2 -2 -2 -2 -2 -2 -2 -2 -2
-1 -1 -1 -2 -2 -2 -2 -2 -2 -2 -2 -2 -2 -2 -2 -2 -2 -2 -2 -2 -2 -2 -2 -2 -2 -2 -2 -2 -2 -2 -2 -2 -2 -2 -2 -2 -3 -3 -3 -3 -3 -3 -2 -2
-1 -2 -2 -2 -2 -2 -2 -2 -2 -2 -2 -2 -2 -2 -2 -2 -2 -2 -2 -3 -3 -2 -2 -2 -3 -3 -3 -3 -3 -3 -3 -3 -3 -3 -3 -3 -3 -3 -3 -3 -3 -3 -3 -3
-2 -2 -2 -2 -2 -2 -3 -2 -2 -2 -2 -2 -2 -2 -2 -2 -3 -3 -3 -3 -3 -3 -3 -3 -3 -3 -3 -3 -3 -3 -3 -3 -3 -3 -3 -3 -3 -3 -3 -3 -3 -3 -3 -3
-2 -2 -2 -3 -3 -3 -3 -3 -3 -3 -3 -3 -3 -3 -3 -3 -3 -3 -3 -3 -3 -3 -3 -3 -3 -3 -4 -4 -4 -4 -4 -4 -4 -4 -4 -4 -4 -4 -3 -3 -3 -3 -3 -3
-3 -3 -3 -3 -3 -3 -3 -3 -3 -3 -3 -3 -3 -3 -3 -3 -3 -3 -3 -4 -3 -3 -4 -4 -4 -4 -4 -4 -4 -4 -4 -4 -4 -4 -4 -4 -4 -4 -4 -4 -4 -3 -3 -3
-3 -3 -3 -3 -3 -3 -3 -3 -3 -3 -3 -3 -4 -4 -4 -4 -4 -4 -4 -4 -4 -4 -4 -4 -4 -4 -4 -4 -4 -4 -4 -4 -4 -4 -4 -4 -4 -4 -4 -4 -4 -4 -4 -4
-4 -4 -4 -4 -4 -4 -4 -3 -4 -4 -4 -4 -4 -4 -4 -4 -4 -4 -4 -4 -4 -4 -4 -4 -4 -4 -4 -4 -4 -4 -4 -4 -4 -4 -4 -4 -4 -4 -4 -4 -4 -4 -4 -4
-4 -4 -4 -4 -4 -4 -4 -4 -4 -4 -4 -4 -4 -4 -4 -5 -5 -4 -4 -4 -4 -4 -4 -4 -4 -4 -5 -5 -5 -5 -5 -4 -4 -4 -5 -4 -4 -4 -4 -4 -4 -4 -4 -4
-4 -4 -4 -4 -4 -4 -5 -5 -5 -5 -5 -5 -5 -4 -5 -5 -5 -5 -5 -5 -5 -5 -5 -5 -5 -5 -5 -5 -5 -5 -5 -5 -5 -5 -5 -5 -5 -5 -5 -5 -4 -4 -4 -4
-5 -5 -5 -5 -5 -5 -5 -5 -5 -5 -5 -5 -5 -5 -5 -5 -5 -5 -5 -5 -5 -5 -5 -5 -5 -5 -5 -5 -5 -5 -5 -5 -5 -5 -5 -5 -5 -5 -5 -5 -5 -5 -5 -5
Wind_Speed
9 8 7 9 10 10 12 11 11 11 11 14 10 7 7 5 4 4 4 4 3 3 4 4 4 4 4 4 4 3 3 4 5 5 5 4 4 5 5 5 6 6 6 6
7 8 10 13 14 14 15 13 14 15 15 11 8 5 5 6 5 5 5 5 5 4 4 4 5 5 5 5 5 3 4 5 5 4 4 4 5 5 4 5 5 5 6 6
7 5 6 11 12 14 9 9 10 15 14 6 5 6 7 7 6 6 5 4 4 5 5 6 5 5 5 5 4 4 4 5 5 4 5 5 4 4 5 5 5 5 6 6
4 2 10 9 4 8 10 10 10 8 7 6 7 6 5 5 6 6 5 4 5 5 5 5 4 4 5 4 4 4 5 5 5 5 5 5 4 5 5 5 5 5 6 6
4 7 10 8 4 5 7 7 7 10 8 6 3 2 5 5 5 6 5 5 5 5 5 5 5 4 4 4 5 5 5 6 6 5 5 5 5 6 5 4 5 5 5 6
6 7 8 6 3 2 3 5 4 5 6 4 1 2 6 5 4 5 5 4 4 4 4 5 5 4 4 5 5 6 7 7 6 5 6 6 7 6 5 5 6 6 6 6
10 10 8 5 2 2 3 5 3 4 5 5 6 7 5 4 4 5 5 5 5 4 4 5 5 3 4 5 7 8 7 6 6 6 6 6 6 5 5 5 5 6 6 6
5 8 9 2 3 3 6 6 5 4 4 5 6 6 5 5 5 6 6 6 5 5 6 6 5 4 6 7 8 7 6 6 6 6 6 5 5 5 5 5 6 6 6 7
8 8 5 3 5 7 6 7 6 5 5 5 6 7 6 6 7 7 7 7 5 5 7 7 5 5 7 9 7 6 6 6 6 6 6 5 5 6 5 5 5 6 6 7
7 9 9 9 9 8 6 6 7 6 6 6 7 8 8 8 7 7 7 7 6 6 7 8 7 7 8 8 7 6 7 7 6 6 6 5 5 5 5 6 6 6 6 7
10 10 9 7 6 7 7 7 7 7 7 7 7 9 8 8 8 7 7 6 6 6 8 9 8 8 8 7 6 7 7 7 6 6 6 6 6 6 7 7 8 8 7 7
11 9 8 10 8 8 8 8 8 8 8 7 7 8 8 7 7 7 7 7 7 7 8 9 8 9 9 7 7 7 7 6 6 5 5 6 6 7 9 11 13 15 14 12
12 11 10 10 9 8 8 8 8 8 8 8 7 7 7 7 7 6 7 7 8 9 9 9 9 9 9 7 7 7 8 7 6 6 6 6 6 6 8 8 11 13 14 15
11 9 10 9 9 8 8 8 7 7 7 7 7 7 7 7 7 8 9 9 8 8 9 9 9 10 9 7 7 8 8 8 8 6 6 6 7 7 7 7 8 7 8 12
9 9 9 8 8 8 6 6 6 7 7 7 6 6 7 8 9 9 9 8 8 8 9 9 10 11 9 7 8 8 7 6 6 6 6 7 7 7 7 8 8 7 6 7
7 7 7 8 8 8 6 6 7 8 7 7 7 7 8 8 9 10 9 7 7 9 10 9 10 10 8 8 8 8 7 10 9 7 7 7 7 7 7 7 7 7 7 6
5 5 5 6 6 7 6 7 7 7 7 8 8 9 9 8 9 10 10 8 8 10 10 10 11 10 9 8 8 7 7 8 10 8 7 7 7 7 7 7 7 8 7 8
5 6 6 6 6 7 7 6 6 7 8 9 9 8 9 9 10 11 10 9 9 10 10 10 10 10 9 9 8 7 7 7 7 7 7 7 7 7 7 7 8 8 7 7
4 6 7 7 7 6 7 8 8 8 8 8 8 9 10 10 10 10 10 9 10 12 11 8 11 10 9 10 9 7 7 7 7 7 7 9 9 7 7 7 8 7 7 7
5 6 7 7 7 7 8 9 9 9 9 8 9 10 10 11 10 10 10 11 10 10 9 10 10 9 9 9 10 7 7 7 8 7 7 7 7 8 7 8 7 7 7 7
7 8 8 8 9 9 9 9 8 10 10 9 9 11 11 12 10 9 9 11 11 9 9 13 9 8 7 8 10 7 7 7 7 7 7 7 7 7 7 7 7 7 7 6
8 8 9 9 9 10 10 8 8 10 10 10 10 10 11 12 11 10 10 10 11 12 9 8 7 10 11 12 7 7 7 7 7 7 7 7 7 7 7 7 7 7 6 6
9 9 10 10 10 11 10 10 9 10 10 11 11 11 11 11 9 9 11 8 7 12 9 8 11 15 16 9 6 7 7 8 8 7 7 7 7 7 7 7 7 6 6 6
10 10 11 10 9 10 11 12 10 9 10 11 11 11 11 10 9 8 9 12 13 14 9 11 15 16 14 7 6 7 7 7 7 7 7 7 6 6 6 6 6 6 6 6
10 10 10 10 10 10 10 11 10 9 9 9 10 10 8 7 9 9 8 9 13 13 9 11 15 15 9 6 6 7 7 7 7 6 6 6 6 6 6 6 6 5 5 5
10 10 10 10 9 9 8 8 8 8 8 9 9 7 7 7 8 9 8 9 10 12 9 7 8 9 6 6 7 7 7 7 7 7 6 6 6 6 5 5 6 5 5 4
9 9 8 8 9 8 8 8 8 9 9 9 10 9 8 7 7 8 8 8 8 8 7 7 6 6 6 6 6 6 6 5 5 5 5 5 5 5 5 5 4 4 3 4
Wind_Direction
259 269 261 255 248 222 219 222 230 247 248 261 261 258 257 256 263 270 278 282 279 282 288 295 297 296 295 294 296 292 285 277 271 270 265 261 261 259 255 250 250 247 248 250
272 261 260 264 254 240 236 235 241 256 265 259 261 258 256 254 247 250 262 272 275 278 281 284 285 287 291 290 291 291 284 279 281 281 275 270 268 268 264 260 257 253 250 249
274 278 295 265 237 224 225 220 217 240 250 264 271 255 251 250 241 239 251 264 271 274 271 270 270 271 278 281 287 288 280 282 284 280 277 274 273 272 268 264 261 259 258 254
264 273 250 251 208 206 224 241 223 234 259 264 254 255 253 241 230 239 245 250 265 271 274 274 273 278 281 287 287 283 279 279 278 275 274 275 272 267 265 260 257 257 258 255
229 251 269 280 241 194 209 254 225 232 256 270 269 328 293 253 227 230 235 245 254 258 262 274 277 277 284 290 288 286 281 278 275 271 271 271 269 267 264 261 262 260 257 253
227 242 252 261 278 215 164 262 243 222 242 248 152 268 276 275 252 246 253 259 264 271 275 280 281 283 285 286 288 282 278 275 273 267 262 262 261 263 262 257 259 261 261 253
237 249 260 270 289 117 195 262 282 236 233 218 213 232 257 273 268 263 268 271 272 275 274 274 277 275 277 280 275 273 276 277 276 268 262 259 260 260 261 262 263 262 263 263
219 240 253 249 119 197 255 290 286 269 250 238 249 263 268 265 265 271 277 277 273 273 277 279 274 265 271 272 272 275 275 275 274 270 267 265 257 262 259 258 264 266 266 272
214 232 265 244 236 260 273 282 280 268 264 257 263 269 270 271 269 270 267 269 266 263 275 279 268 252 263 271 277 278 274 270 269 270 265 257 250 257 261 253 255 262 260 265
260 266 273 275 275 277 272 273 282 281 278 271 268 268 271 272 272 270 268 267 267 265 270 275 270 259 257 267 270 268 269 271 270 269 271 264 254 248 249 250 252 255 257 259
263 275 288 281 280 281 283 281 282 284 280 272 268 269 269 270 271 269 269 269 264 261 266 270 271 270 267 263 260 262 266 269 270 265 264 266 259 249 247 244 242 248 252 249
258 260 260 275 280 282 280 277 279 281 281 272 256 258 264 268 270 271 270 271 270 268 268 272 271 271 270 262 252 254 265 267 264 264 264 262 266 273 255 251 259 257 254 253
255 268 266 270 271 266 263 267 271 271 269 273 271 260 263 270 274 271 271 270 267 268 269 270 271 272 271 264 253 248 253 260 262 259 258 259 259 265 278 277 260 257 258 258
256 261 267 263 264 268 265 267 271 273 271 268 270 273 273 275 277 276 273 269 268 269 270 269 270 272 272 267 258 255 253 256 254 253 252 253 254 256 260 269 279 276 263 260
255 245 250 264 272 273 271 272 276 280 283 283 278 276 275 277 279 279 279 277 274 272 270 270 271 274 274 266 260 259 257 255 252 251 250 251 252 254 257 258 263 270 275 269
276 274 263 262 268 275 277 272 270 278 283 286 289 286 280 276 277 280 279 273 270 273 273 271 272 274 274 267 262 261 258 256 254 253 252 253 251 252 255 258 261 261 261 261
276 281 277 283 282 279 271 266 265 271 279 280 281 284 286 285 285 284 282 276 269 271 273 271 273 276 273 266 259 259 258 259 256 255 252 252 251 252 254 255 256 257 257 255
248 255 263 270 278 284 286 283 276 274 273 274 278 282 281 279 279 281 284 285 284 282 277 271 271 274 270 265 261 258 254 254 251 251 252 252 255 253 253 254 255 257 262 260
277 275 277 276 272 273 277 279 278 276 277 279 278 276 274 274 273 276 281 284 283 283 282 273 275 274 272 267 265 259 254 253 254 254 253 259 263 257 253 252 253 254 256 256
287 286 285 284 282 274 274 276 278 281 281 278 277 278 279 279 277 277 278 276 272 269 274 279 280 275 271 269 267 258 250 250 252 255 254 254 256 258 255 253 253 253 252 251
289 289 289 287 286 282 274 273 276 279 280 277 273 275 278 281 280 277 278 282 279 269 270 276 277 273 271 270 268 255 249 250 251 252 253 254 256 258 256 253 251 251 252 251
280 282 284 284 284 284 282 276 272 275 280 280 278 277 279 281 282 279 269 268 276 279 280 275 273 272 275 276 264 253 252 252 252 252 252 252 253 255 254 252 251 249 248 246
275 276 279 280 278 280 283 281 275 274 276 277 279 278 276 277 278 279 284 280 275 279 281 275 276 279 282 279 264 256 254 253 253 252 251 250 250 250 251 251 251 248 247 246
273 275 276 277 278 280 282 283 279 276 272 273 272 270 271 278 280 269 267 279 283 284 280 277 281 284 285 275 264 259 257 256 254 252 251 250 249 249 249 248 249 247 243 240
273 274 275 276 277 276 276 279 283 281 279 279 276 272 266 262 267 278 279 277 281 285 282 280 284 286 283 270 263 260 258 255 255 253 249 250 249 249 249 246 244 243 240 235
271 273 273 269 268 273 276 279 280 282 284 286 286 281 276 272 268 272 277 277 277 282 281 278 279 281 276 268 263 261 258 261 263 257 248 247 247 248 248 246 242 238 233 228
271 271 274 276 273 268 267 269 272 276 278 280 285 287 284 282 279 277 277 279 280 280 279 277 276 274 273 269 265 263 260 259 257 254 251 246 244 245 244 239 237 230 225 222
Height
1500 1498 1498 1495 1493 1495 1496 1494 1493 1483 1480 1469 1468 1468 1467 1466 1466 1465 1465 1464 1464 1463 1463 1462 1462 1462 1461 1461 1461 1460 1459 1458 1458 1458 1457 1456 1456 1455 1454 1454 1453 1452 1451 1451
1498 1494 1494 1491 1486 1486 1485 1484 1481 1477 1471 1463 1464 1464 1464 1463 1463 1462 1462 1462 1461 1460 1460 1459 1459 1458 1458 1457 1457 1456 1455 1454 1454 1453 1452 1451 1451 1450 1449 1448 1448 1447 1446 1445
1497 1493 1490 1484 1474 1474 1475 1471 1472 1470 1463 1460 1462 1461 1460 1459 1459 1458 1458 1458 1458 1458 1457 1456 1455 1455 1454 1453 1452 1451 1451 1450 1449 1448 1447 1446 1445 1445 1444 1443 1442 1441 1440 1440
1495 1494 1489 1468 1462 1463 1464 1463 1463 1461 1458 1458 1457 1456 1456 1456 1455 1455 1455 1455 1455 1454 1453 1453 1452 1451 1450 1449 1448 1447 1445 1444 1444 1443 1442 1441 1440 1439 1438 1438 1437 1436 1435 1434
1492 1488 1476 1465 1460 1460 1462 1459 1456 1456 1454 1454 1454 1454 1453 1452 1452 1452 1452 1452 1452 1451 1450 1449 1448 1446 1445 1444 1443 1442 1441 1440 1439 1438 1436 1435 1434 1433 1432 1432 1431 1430 1429 1428
1486 1482 1473 1460 1456 1454 1457 1457 1451 1451 1451 1451 1453 1456 1451 1448 1449 1449 1449 1449 1448 1447 1446 1445 1444 1442 1441 1439 1438 1437 1436 1435 1434 1433 1431 1430 1429 1428 1427 1426 1425 1424 1423 1422
1480 1475 1464 1458 1455 1455 1460 1454 1449 1447 1447 1448 1448 1448 1446 1446 1446 1446 1445 1445 1444 1443 1441 1440 1439 1438 1436 1435 1433 1432 1431 1430 1429 1428 1426 1425 1424 1423 1421 1420 1419 1417 1416 1416
1476 1473 1463 1454 1455 1456 1452 1448 1446 1445 1445 1445 1444 1443 1443 1443 1442 1442 1441 1440 1439 1438 1436 1436 1435 1433 1431 1429 1428 1427 1426 1425 1423 1422 1421 1420 1418 1417 1415 1414 1412 1411 1410 1409
1465 1459 1452 1450 1450 1449 1448 1446 1445 1443 1442 1442 1441 1440 1439 1438 1438 1437 1436 1435 1434 1433 1431 1430 1429 1428 1426 1424 1423 1422 1420 1419 1418 1416 1415 1414 1412 1411 1409 1408 1406 1404 1403 1402
1459 1452 1449 1447 1446 1445 1444 1443 1442 1441 1439 1439 1437 1436 1435 1434 1433 1432 1431 1430 1428 1427 1425 1424 1423 1422 1420 1418 1417 1416 1414 1413 1411 1410 1408 1407 1406 1404 1403 1401 1400 1398 1397 1396
1453 1448 1445 1442 1442 1441 1440 1439 1437 1436 1435 1434 1433 1431 1430 1429 1428 1426 1425 1424 1423 1421 1419 1417 1416 1415 1414 1412 1411 1409 1407 1406 1405 1403 1402 1400 1399 1398 1396 1395 1394 1392 1391 1390
1446 1443 1442 1438 1437 1437 1435 1434 1433 1432 1430 1429 1428 1426 1425 1423 1422 1421 1419 1418 1416 1414 1412 1411 1409 1408 1407 1406 1404 1402 1400 1399 1398 1396 1395 1393 1392 1390 1389 1388 1387 1386 1385 1384
1438 1437 1436 1434 1432 1432 1430 1429 1428 1426 1425 1423 1422 1421 1419 1417 1416 1415 1413 1412 1410 1408 1406 1404 1403 1401 1400 1399 1397 1395 1393 1392 1391 1389 1388 1386 1385 1383 1381 1380 1379 1378 1377 1376
1433 1432 1430 1428 1427 1426 1425 1424 1422 1421 1419 1418 1417 1415 1414 1412 1410 1409 1407 1406 1404 1402 1399 1398 1396 1394 1393 1392 1390 1388 1386 1385 1383 1382 1381 1379 1378 1376 1375 1373 1371 1369 1369 1369
1426 1426 1424 1422 1421 1420 1419 1418 1417 1415 1414 1413 1411 1410 1408 1406 1404 1403 1401 1400 1397 1395 1393 1391 1389 1387 1386 1384 1382 1381 1379 1377 1376 1375 1373 1372 1371 1369 1368 1366 1364 1362 1362 1361
1421 1420 1419 1417 1416 1415 1414 1413 1412 1410 1409 1407 1406 1404 1402 1401 1399 1397 1395 1393 1391 1388 1386 1384 1382 1380 1379 1377 1375 1373 1372 1370 1369 1367 1366 1364 1363 1362 1360 1359 1357 1356 1355 1355
1417 1415 1414 1413 1411 1410 1409 1409 1407 1405 1404 1402 1400 1399 1397 1395 1392 1390 1388 1386 1384 1382 1379 1377 1375 1373 1372 1370 1368 1366 1364 1363 1362 1360 1359 1357 1356 1355 1353 1352 1351 1349 1348 1349
1414 1413 1412 1410 1408 1407 1405 1404 1403 1401 1399 1397 1395 1393 1391 1389 1386 1384 1381 1379 1377 1374 1372 1370 1368 1366 1364 1362 1360 1358 1357 1355 1354 1352 1351 1350 1349 1347 1346 1345 1344 1343 1342 1342
1410 1409 1408 1406 1405 1403 1401 1400 1398 1396 1394 1392 1390 1387 1385 1382 1380 1377 1375 1372 1369 1366 1364 1362 1360 1358 1356 1354 1353 1351 1349 1348 1346 1345 1344 1343 1342 1340 1339 1338 1337 1336 1336 1335
1407 1406 1404 1402 1401 1399 1397 1395 1393 1390 1388 1386 1384 1381 1378 1375 1373 1370 1368 1364 1362 1359 1357 1354 1352 1350 1348 1346 1345 1343 1341 1340 1339 1338 1337 1336 1334 1333 1333 1332 1331 1330 1329 1329
1403 1401 1399 1397 1395 1393 1391 1389 1387 1384 1382 1380 1377 1374 1371 1368 1366 1363 1360 1356 1353 1352 1349 1347 1345 1342 1340 1338 1337 1335 1334 1333 1332 1331 1330 1329 1328 1327 1326 1325 1325 1324 1323 1323
1398 1396 1394 1392 1389 1387 1385 1383 1380 1378 1375 1373 1370 1367 1364 1361 1358 1355 1352 1349 1346 1344 1342 1339 1337 1335 1333 1331 1330 1328 1327 1326 1325 1324 1323 1322 1321 1320 1320 1319 1318 1318 1317 1317
1393 1390 1388 1385 1383 1380 1378 1376 1373 1371 1368 1365 1363 1360 1357 1354 1351 1348 1343 1341 1339 1337 1334 1332 1330 1328 1326 1325 1323 1321 1320 1319 1318 1317 1317 1316 1315 1314 1313 1313 1312 1312 1312 1312
1386 1383 1381 1378 1376 1373 1370 1367 1366 1363 1361 1358 1355 1353 1350 1346 1343 1340 1338 1334 1332 1330 1327 1325 1323 1321 1320 1318 1316 1315 1314 1313 1312 1311 1310 1309 1309 1308 1307 1307 1306 1306 1306 1307
1378 1376 1373 1371 1368 1366 1363 1360 1358 1355 1353 1350 1347 1345 1342 1340 1336 1333 1330 1328 1325 1323 1321 1319 1317 1315 1313 1311 1310 1308 1307 1306 1305 1305 1304 1303 1302 1302 1301 1301 1301 1301 1301 1301
1370 1368 1365 1363 1361 1359 1356 1353 1350 1347 1345 1342 1339 1337 1334 1332 1330 1326 1324 1321 1319 1317 1314 1312 1310 1308 1307 1305 1304 1302 1301 1300 1300 1299 1298 1297 1297 1296 1296 1296 1296 1296 1296 1297
1362 1360 1357 1355 1352 1351 1348 1346 1343 1340 1338 1335 1332 1329 1327 1325 1322 1320 1317 1315 1312 1310 1308 1306 1304 1302 1300 1299 1298 1297 1296 1295 1294 1294 1293 1292 1292 1291 1291 1291 1291 1291 1292 1292